• în România
  • Lista ţărilor
  • Pe 7 zile
  • Temperatura apei
  • Hartă satelitară
  • Meteo pe hartă
  • Widget-uri
  • user-avatar
    Intrare

    Meteo pe oră la Algiers

    Astăzi, 20 Ianuarie, Vineri

    Timp Temperatura Precipitaţii Vânt Presiune Umiditate
    00:00 +6°C° 0 mm 4 m/s 749 mmHg 68%
    01:00 +6°C° 0 mm 4 m/s 748 mmHg 67%
    02:00 +6°C° 0 mm 4 m/s 748 mmHg 66%
    03:00 +6°C° 0 mm 4 m/s 748 mmHg 65%
    04:00 +5°C° 0 mm 4 m/s 748 mmHg 64%
    05:00 +5°C° 0 mm 4 m/s 748 mmHg 64%
    06:00 +5°C° 0 mm 4 m/s 747 mmHg 64%
    07:00 +7°C° 0 mm 3 m/s 747 mmHg 63%
    08:00 +8°C° 0 mm 3 m/s 747 mmHg 62%
    09:00 +9°C° 0 mm 2 m/s 747 mmHg 61%
    10:00 +10°C° 0 mm 2 m/s 747 mmHg 56%
    11:00 +12°C° 0 mm 2 m/s 747 mmHg 52%
    12:00 +14°C° 0 mm 2 m/s 746 mmHg 48%
    13:00 +13°C° 0 mm 2 m/s 746 mmHg 51%
    14:00 +12°C° 0 mm 3 m/s 745 mmHg 55%
    15:00 +12°C° 0 mm 3 m/s 745 mmHg 58%
    16:00 +11°C° 0 mm 3 m/s 745 mmHg 64%
    17:00 +9°C° 0 mm 3 m/s 745 mmHg 70%
    18:00 +8°C° 0 mm 3 m/s 745 mmHg 76%
    19:00 +8°C° 0,2 mm 3 m/s 744 mmHg 79%
    20:00 +8°C° 0,2 mm 3 m/s 744 mmHg 81%
    21:00 +8°C° 0,2 mm 2 m/s 744 mmHg 83%
    22:00 +8°C° 0,4 mm 3 m/s 744 mmHg 85%
    23:00 +7°C° 0,4 mm 3 m/s 744 mmHg 88%

    Mâine, 21 Ianuarie, Sâmbătă

    Timp Temperatura Precipitaţii Vânt Presiune Umiditate
    00:00 +7°C° 0,4 mm 3 m/s 743 mmHg 90%
    01:00 +7°C° 0,6 mm 3 m/s 743 mmHg 90%
    02:00 +6°C° 0,6 mm 4 m/s 742 mmHg 89%
    03:00 +6°C° 0,6 mm 4 m/s 742 mmHg 89%
    04:00 +6°C° 0,2 mm 4 m/s 741 mmHg 89%
    05:00 +6°C° 0,2 mm 4 m/s 741 mmHg 89%
    06:00 +5°C° 0,2 mm 4 m/s 741 mmHg 89%
    07:00 +6°C° 0,2 mm 4 m/s 741 mmHg 86%
    08:00 +7°C° 0,2 mm 4 m/s 741 mmHg 83%
    09:00 +9°C° 0,2 mm 3 m/s 741 mmHg 79%
    10:00 +10°C° 0,4 mm 3 m/s 741 mmHg 75%
    11:00 +11°C° 0,4 mm 3 m/s 740 mmHg 71%
    12:00 +14°C° 0,4 mm 2 m/s 740 mmHg 67%
    13:00 +13°C° 0,3 mm 2 m/s 740 mmHg 68%
    14:00 +13°C° 0,3 mm 2 m/s 740 mmHg 69%
    15:00 +13°C° 0,3 mm 2 m/s 739 mmHg 70%
    16:00 +11°C° 0,3 mm 3 m/s 740 mmHg 76%
    17:00 +9°C° 0,3 mm 3 m/s 740 mmHg 81%
    18:00 +7°C° 0,3 mm 4 m/s 740 mmHg 87%
    19:00 +7°C° 0,5 mm 4 m/s 740 mmHg 88%
    20:00 +7°C° 0,5 mm 4 m/s 741 mmHg 88%
    21:00 +7°C° 0,5 mm 5 m/s 741 mmHg 89%
    22:00 +7°C° 0,9 mm 4 m/s 741 mmHg 90%
    23:00 +6°C° 0,9 mm 4 m/s 741 mmHg 90%

    Poimâine, 22 Ianuarie, Duminică

    Timp Temperatura Precipitaţii Vânt Presiune Umiditate
    00:00 +6°C° 0,9 mm 4 m/s 741 mmHg 91%
    01:00 +6°C° 0,6 mm 4 m/s 741 mmHg 91%
    02:00 +6°C° 0,6 mm 4 m/s 741 mmHg 91%
    03:00 +6°C° 0,6 mm 4 m/s 741 mmHg 91%
    04:00 +6°C° 0,6 mm 4 m/s 741 mmHg 91%
    05:00 +6°C° 0,6 mm 4 m/s 741 mmHg 92%
    06:00 +7°C° 0,6 mm 3 m/s 741 mmHg 92%
    07:00 +8°C° 0,1 mm 3 m/s 742 mmHg 89%
    08:00 +8°C° 0,1 mm 3 m/s 742 mmHg 87%
    09:00 +9°C° 0,1 mm 3 m/s 743 mmHg 84%
    10:00 +10°C° 0,2 mm 3 m/s 743 mmHg 79%
    11:00 +11°C° 0,2 mm 3 m/s 743 mmHg 75%
    12:00 +13°C° 0,2 mm 2 m/s 743 mmHg 70%
    13:00 +12°C° 0,2 mm 3 m/s 743 mmHg 72%
    14:00 +12°C° 0,2 mm 3 m/s 743 mmHg 73%
    15:00 +11°C° 0,2 mm 3 m/s 744 mmHg 75%
    16:00 +10°C° 0,5 mm 4 m/s 744 mmHg 80%
    17:00 +8°C° 0,5 mm 4 m/s 744 mmHg 86%
    18:00 +7°C° 0,5 mm 4 m/s 745 mmHg 91%
    19:00 +7°C° 1,4 mm 5 m/s 745 mmHg 92%
    20:00 +7°C° 1,4 mm 6 m/s 746 mmHg 92%
    21:00 +8°C° 1,4 mm 7 m/s 746 mmHg 92%
    22:00 +8°C° 1,4 mm 7 m/s 746 mmHg 93%
    23:00 +7°C° 1,4 mm 8 m/s 746 mmHg 93%

    23 Ianuarie, Luni

    Timp Temperatura Precipitaţii Vânt Presiune Umiditate
    00:00 +7°C° 1,4 mm 8 m/s 746 mmHg 94%
    01:00 +7°C° 1,3 mm 8 m/s 746 mmHg 93%
    02:00 +7°C° 1,3 mm 8 m/s 746 mmHg 92%
    03:00 +7°C° 1,3 mm 9 m/s 746 mmHg 92%
    04:00 +7°C° 1,1 mm 9 m/s 746 mmHg 91%
    05:00 +6°C° 1,1 mm 9 m/s 746 mmHg 91%
    06:00 +6°C° 1,1 mm 9 m/s 747 mmHg 90%
    07:00 +7°C° 0,9 mm 9 m/s 747 mmHg 88%
    08:00 +7°C° 0,9 mm 9 m/s 747 mmHg 85%
    09:00 +7°C° 0,9 mm 9 m/s 748 mmHg 83%
    10:00 +8°C° 0,8 mm 9 m/s 748 mmHg 79%
    11:00 +10°C° 0,8 mm 9 m/s 748 mmHg 76%
    12:00 +10°C° 0,8 mm 9 m/s 748 mmHg 73%
    13:00 +10°C° 0,8 mm 9 m/s 748 mmHg 74%
    14:00 +10°C° 0,8 mm 9 m/s 747 mmHg 75%
    15:00 +10°C° 0,8 mm 8 m/s 747 mmHg 75%
    16:00 +9°C° 0,8 mm 8 m/s 748 mmHg 80%
    17:00 +6°C° 0,8 mm 7 m/s 748 mmHg 85%
    18:00 +5°C° 0,8 mm 7 m/s 748 mmHg 90%
    19:00 +5°C° 0,9 mm 7 m/s 749 mmHg 90%
    20:00 +6°C° 0,9 mm 7 m/s 749 mmHg 89%
    21:00 +6°C° 0,9 mm 7 m/s 750 mmHg 89%
    22:00 +7°C° 1 mm 6 m/s 750 mmHg 89%
    23:00 +7°C° 1 mm 6 m/s 750 mmHg 90%

    24 Ianuarie, Marţi

    Timp Temperatura Precipitaţii Vânt Presiune Umiditate
    00:00 +7°C° 1 mm 6 m/s 750 mmHg 90%
    01:00 +7°C° 1,7 mm 6 m/s 750 mmHg 91%
    02:00 +7°C° 1,7 mm 6 m/s 750 mmHg 93%
    03:00 +6°C° 1,7 mm 5 m/s 750 mmHg 94%
    04:00 +7°C° 2,2 mm 5 m/s 750 mmHg 94%
    05:00 +7°C° 2,2 mm 5 m/s 750 mmHg 94%
    06:00 +7°C° 2,2 mm 5 m/s 750 mmHg 94%
    07:00 +7°C° 1,6 mm 5 m/s 751 mmHg 94%
    08:00 +7°C° 1,6 mm 4 m/s 751 mmHg 94%
    09:00 +7°C° 1,6 mm 4 m/s 752 mmHg 93%
    10:00 +8°C° 1 mm 5 m/s 752 mmHg 90%
    11:00 +8°C° 1 mm 5 m/s 752 mmHg 86%
    12:00 +9°C° 1 mm 6 m/s 752 mmHg 83%
    13:00 +9°C° 0,4 mm 7 m/s 752 mmHg 80%
    14:00 +10°C° 0,4 mm 7 m/s 752 mmHg 77%
    15:00 +10°C° 0,4 mm 8 m/s 752 mmHg 73%
    16:00 +9°C° 0,2 mm 7 m/s 752 mmHg 76%
    17:00 +8°C° 0,2 mm 6 m/s 752 mmHg 79%
    18:00 +6°C° 0,2 mm 5 m/s 753 mmHg 82%
    19:00 +6°C° 0,2 mm 5 m/s 753 mmHg 83%
    20:00 +6°C° 0,2 mm 5 m/s 753 mmHg 84%
    21:00 +6°C° 0,2 mm 4 m/s 754 mmHg 84%
    22:00 +6°C° 0,2 mm 4 m/s 754 mmHg 85%
    23:00 +6°C° 0,2 mm 4 m/s 754 mmHg 86%

    25 Ianuarie, Miercuri

    Timp Temperatura Precipitaţii Vânt Presiune Umiditate
    00:00 +6°C° 0,2 mm 4 m/s 754 mmHg 87%
    01:00 +8°C° 0,1 mm 3 m/s 754 mmHg 87%
    02:00 +8°C° 0,1 mm 3 m/s 754 mmHg 88%
    03:00 +8°C° 0,1 mm 3 m/s 754 mmHg 88%
    04:00 +8°C° 0,1 mm 3 m/s 754 mmHg 89%
    05:00 +8°C° 0,1 mm 2 m/s 754 mmHg 90%
    06:00 +8°C° 0,1 mm 2 m/s 754 mmHg 91%
    07:00 +9°C° 0 mm 2 m/s 755 mmHg 89%
    08:00 +9°C° 0 mm 2 m/s 755 mmHg 87%
    09:00 +10°C° 0 mm 2 m/s 755 mmHg 85%
    10:00 +12°C° 0 mm 2 m/s 755 mmHg 80%
    11:00 +12°C° 0 mm 3 m/s 755 mmHg 74%
    12:00 +12°C° 0 mm 3 m/s 755 mmHg 69%
    13:00 +12°C° 0 mm 3 m/s 755 mmHg 68%
    14:00 +12°C° 0 mm 3 m/s 755 mmHg 67%
    15:00 +13°C° 0 mm 3 m/s 755 mmHg 66%
    16:00 +10°C° 0 mm 2 m/s 755 mmHg 73%
    17:00 +8°C° 0 mm 2 m/s 755 mmHg 80%
    18:00 +7°C° 0 mm 1 m/s 756 mmHg 87%
    19:00 +7°C° 0 mm 1 m/s 756 mmHg 87%
    20:00 +6°C° 0 mm 2 m/s 756 mmHg 87%
    21:00 +6°C° 0 mm 2 m/s 756 mmHg 87%
    22:00 +6°C° 0 mm 2 m/s 756 mmHg 86%
    23:00 +6°C° 0 mm 2 m/s 756 mmHg 86%
    Arată mai mult